Home > Weather > Lubango > Past weeks

Flag for Angola Weather for the Past 2 Weeks in Lubango, Angola

Now
81 °F

Passing clouds.


Feels Like: 86 °F
Forecast: 50 / 79 °F
Wind: 6 mph from Southwest

Location: Luanda Airport

Current Time: May 6, 2016 at 11:37:25 PM

Latest Report: May 6, 2016 at 11:00 PM


Visibility: N/A

Pressure: 29.89 "Hg (24.45 "Hg at 1765m altitude)

Humidity: 84%

Dew Point: 75 °F

Location of LubangoLocation

Historic Weather in Lubango — Graph

°F

Lubango Temperature Yesterday

Maximum temperature yesterday: 86 °F (at 10:00 AM)
Minimum temperature yesterday: 79 °F (at 12:00 AM)
Average temperature yesterday: 81 °F

High & Low Weather Summary for the Past Weeks

 TemperatureHumidityPressure
High90 °F (Apr 26, 1:00 PM)94% (Apr 21, 10:00 PM)29.95 "Hg (Apr 21, 10:00 PM)
Low75 °F (May 2, 6:00 AM)59% (Apr 29, 11:00 AM)29.71 "Hg (Apr 23, 3:00 PM)
Average82 °F80%29.82 "Hg
* Reported Apr 21 10:00 PM — May 6 10:00 PM, Lubango, Weather by CustomWeather, © 2016

Note: Actual official high and low records may vary slightly from our data, if they occured in-between our weather recording intervals... More about our weather records

Advertising

Lubango Weather History for the Previous 24 Hours

Scroll right to see more
 ConditionsComfort  
Time TempWeatherWind HumidityBarometerVisibility
10:00 PM
Fri, May 6
81 °FPassing clouds.5 mph84%29.86 "HgN/A
9:00 PM81 °FPassing clouds.7 mph84%29.86 "HgN/A
8:00 PM81 °FPassing clouds.6 mph84%29.83 "HgN/A
7:00 PM81 °FPassing clouds.9 mph84%29.80 "HgN/A
6:00 PM82 °FPassing clouds.9 mph79%29.80 "HgN/A
5:00 PM84 °FPassing clouds.9 mph74%29.80 "HgN/A
3:00 PM86 °FScattered clouds.7 mph70%29.80 "HgN/A
2:00 PM86 °FScattered clouds.7 mph70%29.83 "HgN/A
1:00 PM86 °FScattered clouds.7 mph70%29.86 "HgN/A
12:00 PM82 °FScattered clouds.9 mph79%29.89 "HgN/A
11:00 AM82 °FPartly sunny.5 mph79%29.92 "HgN/A
10:00 AM82 °FWarm.6 mph84%29.92 "HgN/A
9:00 AM84 °FPartly sunny.5 mph79%29.89 "HgN/A
8:00 AM81 °FScattered clouds.5 mph84%29.89 "HgN/A
7:00 AM79 °FScattered clouds.3 mph89%29.86 "HgN/A
6:00 AM79 °FPassing clouds.5 mph89%29.86 "HgN/A
5:00 AM79 °FPassing clouds.5 mph89%29.83 "HgN/A
4:00 AM79 °FPassing clouds.6 mph89%29.83 "HgN/A
3:00 AM79 °FPassing clouds.7 mph89%29.86 "HgN/A
2:00 AM79 °FPassing clouds.5 mph89%29.86 "HgN/A
1:00 AM79 °FPassing clouds.6 mph89%29.89 "HgN/A
12:00 AM79 °FPassing clouds.5 mph89%29.89 "HgN/A
11:00 PM
Thu, May 5
81 °FPassing clouds.5 mph84%29.89 "HgN/A
Weather by CustomWeather, © 2016

See weather overviewHow to use our weather pages